Find Starlink 31904

NORAD ID: 59657 Int'l Des: 2024-084 Owner: SPXS Country: US Constellation: starlink operational
LEOCIRCULAR

Live Position

Loading 3D Globe...

About Starlink 31904

Description loading...

Upcoming Passes

Passes for default location (London). Set your location on the main map for personalized predictions.

Altitude History

Loading altitude history...

Two-Line Element Set

1 59657U 24084D 26129.96513647 .00001828 00000-0 75995-4 0 9999
2 59657 43.0024 55.8184 0001220 283.3454 76.7261 15.27560699113747
Epoch: May 9, 2026 • Age: 24 hours

Current Status

Altitude 485.9 km
Velocity 7.63 km/s
Sub-Earth Point 37.81°N, 42.6°W
Launch Date May 6, 2024
Age 2 years
Type internet

Technical Details

Classification Payload
Mass 730.00 kg
Dry Mass 700.00 kg
Total Mass 730.00 kg
Length 0.30 m
Diameter 4.10 m
Span 29.00 m
Shape Box + pan
Manufacturer SPXS
Bus Type Starlink V2M
Phase Status In Orbit
Owner/State SPXS/US

Most Searched